{"data":{"norad_id":63481,"epoch":"2026-09-20T04:49:32.939616Z","epoch_age_seconds":181763,"freshness":"STALE","line1":"1 63481U 25070X   26263.20107569  .00011081  00000+0  41180-3 0  9992","line2":"2 63481  43.0014 237.8843 0001780 279.7790  80.2860 15.27562483 82768","mean_motion":15.27562483,"eccentricity":0.000178,"inclination_deg":43.0014,"raan_deg":237.8843,"arg_perigee_deg":279.779,"mean_anomaly_deg":80.286,"bstar":0.0004118,"rev_number":8276,"period_min":94.267829697674,"perigee_km":481.88024827892,"apogee_km":484.32284920227,"semimajor_km":6861.2385487406,"source":"CELESTRAK","updated_at":"2026-09-21T09:00:35.011620Z"}}